This demonstration page uses our WeatherBlox Daily Observations layout. Learn more.

Left ArrowRight Arrow

39.95238, -75.16362

Hourly Observations for April 27, 2022

Temp ( °F °C ) Dew Point ( °F °C ) Humidity (%) Winds ( mph kmh ) Pressure ( in mb ) Visibility ( mi km ) Precip ( " mm )
12:54 am 00:54 Mostly Cloudy 59 15 44 6.7 58 58 WNW 15 24 30.00 1016 10 16 0.00 0.00
1:54 am 01:54 Mostly Clear 57 13.9 38 3.3 49 49 WNW 12 19 30.01 1016 10 16 0.00 0.00
2:54 am 02:54 Mostly Clear 56 13.3 34 1.1 44 44 WNW 14 22 30.00 1016 10 16 0.00 0.00
3:54 am 03:54 Mostly Clear 54 12.2 35 1.7 49 49 WNW 15 24 30.01 1016 10 16 0.00 0.00
4:54 am 04:54 Mostly Cloudy 52 11.1 32 0 47 47 NW 14 22 30.02 1017 10 16 0.00 0.00
5:54 am 05:54 Mostly Cloudy 52 11.1 29 -1.7 41 41 NW 8 13 30.03 1017 10 16 0.00 0.00
6:54 am 06:54 Mostly Cloudy 51 10.6 30 -1.1 44 44 W 9 15 30.04 1017 10 16 0.00 0.00
7:54 am 07:54 Mostly Cloudy 52 11.1 32 0 47 47 W 12 19 30.03 1017 10 16 0.00 0.00
8:54 am 08:54 Mostly Cloudy 52 11.1 29 -1.7 41 41 W 20 31 30.04 1017 10 16 0.00 0.00
9:54 am 09:54 Partly Cloudy 54 12.2 24 -4.4 31 31 NW 22 35 30.03 1017 10 16 0.00 0.00
10:54 am 10:54 Mostly Sunny 55 12.8 24 -4.4 30 30 W 17 28 30.01 1016 10 16 0.00 0.00
11:54 am 11:54 Partly Cloudy 57 13.9 24 -4.4 28 28 WNW 20 31 30.00 1016 10 16 0.00 0.00
12:54 pm 12:54 Mostly Cloudy 57 13.9 24 -4.4 28 28 W 22 35 29.99 1016 10 16 0.00 0.00
1:54 pm 13:54 Mostly Cloudy 56 13.3 24 -4.4 29 29 NW 23 37 29.99 1016 10 16 0.00 0.00
2:54 pm 14:54 Mostly Cloudy 55 12.8 25 -3.9 31 31 NW 21 33 30.00 1016 10 16 0.00 0.00
3:54 pm 15:54 Mostly Cloudy 55 12.8 24 -4.4 30 30 WNW 15 24 29.99 1016 10 16 0.00 0.00
4:54 pm 16:54 Mostly Cloudy 54 12.2 24 -4.4 31 31 WNW 23 37 29.99 1016 10 16 0.00 0.00
5:54 pm 17:54 Mostly Cloudy 53 11.7 25 -3.9 34 34 WNW 23 37 30.02 1017 10 16 0.00 0.00
6:54 pm 18:54 Mostly Cloudy 51 10.6 26 -3.3 38 38 WNW 18 30 30.04 1017 10 16 0.00 0.00
7:54 pm 19:54 Mostly Cloudy 50 10 26 -3.3 39 39 NW 17 28 30.05 1018 10 16 0.00 0.00
8:54 pm 20:54 Mostly Cloudy 49 9.4 26 -3.3 41 41 WNW 21 33 30.06 1018 10 16 0.00 0.00
9:54 pm 21:54 Cloudy 48 8.9 26 -3.3 42 42 WNW 21 33 30.08 1019 10 16 0.00 0.00
10:54 pm 22:54 Cloudy 46 7.8 24 -4.4 42 42 WNW 20 31 30.08 1019 10 16 0.00 0.00
11:54 pm 23:54 Mostly Cloudy 45 7.2 23 -5 42 42 NW 20 31 30.09 1019 10 16 0.00 0.00

Powered by AerisWeather